Total_Precipitation_Accumulation
0.00 0.00 0.00 0.00 0.00 0.00 0.00 0.00 0.00 0.00 0.00 0.00 0.00 0.00 0.00 0.00 0.00 0.00 0.00 0.00 0.00 0.00 0.00 0.00 0.00 0.00 0.00 0.00 0.00 0.00 0.01 0.01 0.00 0.01 0.01 0.02 0.02 0.04 0.02 0.04 0.01 0.05 0.05 0.03 0.03 0.02 0.07 0.31 0.41 0.60 0.90 1.04 1.02 0.42 0.74 0.78 0.75 0.36 0.85 0.06 0.08 0.15 0.14 0.23 0.15 0.13 0.06 0.03 0.01 0.01 0.01 0.00 0.00 0.00 0.00 0.00 0.00 0.00 0.01 0.01 0.01 0.01 0.02 0.04 0.04 0.06
0.00 0.00 0.00 0.00 0.00 0.00 0.00 0.00 0.00 0.00 0.00 0.00 0.00 0.00 0.00 0.00 0.00 0.00 0.00 0.00 0.00 0.00 0.00 0.00 0.00 0.00 0.00 0.00 0.00 0.00 0.00 0.01 0.00 0.01 0.01 0.01 0.01 0.02 0.01 0.05 0.01 0.05 0.07 0.05 0.14 0.50 0.87 0.77 0.93 1.46 1.34 0.61 0.47 1.22 1.02 0.87 0.68 0.92 0.31 0.15 0.13 0.08 0.09 0.11 0.13 0.06 0.04 0.01 0.00 0.01 0.00 0.00 0.00 0.00 0.00 0.00 0.00 0.00 0.00 0.00 0.00 0.00 0.01 0.01 0.03 0.04
0.00 0.00 0.00 0.00 0.00 0.00 0.00 0.00 0.00 0.00 0.00 0.00 0.00 0.00 0.00 0.00 0.00 0.00 0.00 0.00 0.00 0.00 0.00 0.00 0.00 0.00 0.00 0.00 0.00 0.00 0.00 0.00 0.01 0.00 0.00 0.00 0.01 0.02 0.04 0.13 0.26 0.07 0.05 0.08 0.08 0.25 0.54 1.14 1.28 1.37 1.25 0.71 0.92 1.32 0.74 0.80 0.58 0.33 0.36 0.26 0.49 0.21 0.14 0.13 0.07 0.12 0.06 0.01 0.02 0.06 0.01 0.00 0.00 0.01 0.00 0.00 0.00 0.00 0.00 0.00 0.00 0.00 0.00 0.01 0.01 0.02
0.00 0.00 0.00 0.00 0.00 0.00 0.00 0.00 0.00 0.00 0.00 0.00 0.00 0.00 0.00 0.00 0.00 0.02 0.00 0.00 0.00 0.00 0.00 0.00 0.00 0.00 0.00 0.00 0.00 0.01 0.01 0.00 0.00 0.01 0.00 0.00 0.01 0.01 0.05 0.13 0.04 0.02 0.03 0.08 0.08 0.08 0.24 0.73 0.70 0.50 0.78 1.02 1.13 0.83 1.50 0.69 0.94 0.48 0.39 0.12 0.22 0.29 0.18 0.16 0.20 0.01 0.04 0.00 0.07 0.04 0.00 0.00 0.00 0.00 0.00 0.00 0.00 0.00 0.00 0.00 0.00 0.00 0.00 0.00 0.01 0.00
0.00 0.00 0.00 0.00 0.00 0.00 0.00 0.00 0.00 0.00 0.00 0.00 0.00 0.00 0.00 0.00 0.00 0.00 0.02 0.00 0.00 0.00 0.00 0.00 0.00 0.00 0.00 0.00 0.00 0.01 0.00 0.00 0.00 0.01 0.01 0.00 0.00 0.01 0.08 0.15 0.04 0.02 0.04 0.07 0.06 0.05 0.19 0.74 0.74 0.72 1.17 1.40 1.23 1.23 0.93 1.10 0.84 1.05 0.58 0.14 0.13 0.24 0.23 0.20 0.10 0.11 0.05 0.05 0.12 0.21 0.04 0.00 0.00 0.00 0.00 0.00 0.00 0.00 0.00 0.00 0.00 0.00 0.00 0.00 0.00 0.00
0.00 0.00 0.00 0.00 0.00 0.00 0.00 0.00 0.00 0.00 0.00 0.00 0.00 0.00 0.00 0.00 0.00 0.00 0.00 0.00 0.00 0.01 0.00 0.00 0.00 0.01 0.00 0.00 0.00 0.00 0.00 0.00 0.00 0.00 0.00 0.00 0.00 0.01 0.04 0.02 0.04 0.03 0.03 0.07 0.05 0.03 0.26 0.52 0.54 0.88 1.41 1.17 1.13 0.89 0.90 1.18 0.83 0.72 0.50 0.25 0.14 0.15 0.14 0.07 0.14 0.19 0.15 0.24 0.23 0.08 0.00 0.00 0.00 0.00 0.00 0.00 0.00 0.00 0.00 0.00 0.00 0.00 0.00 0.00 0.00 0.00
0.01 0.00 0.00 0.00 0.00 0.00 0.00 0.00 0.00 0.00 0.00 0.00 0.01 0.00 0.00 0.00 0.00 0.00 0.00 0.00 0.01 0.01 0.04 0.00 0.01 0.02 0.00 0.00 0.00 0.00 0.00 0.00 0.00 0.00 0.00 0.00 0.00 0.00 0.03 0.11 0.05 0.04 0.01 0.05 0.15 0.08 0.44 0.99 0.91 1.15 1.10 0.62 0.85 0.73 0.91 0.85 0.96 0.89 0.48 0.19 0.23 0.10 0.11 0.16 0.21 0.11 0.16 0.27 0.16 0.01 0.00 0.01 0.00 0.00 0.00 0.00 0.00 0.00 0.00 0.00 0.00 0.00 0.00 0.00 0.00 0.00
0.00 0.00 0.00 0.00 0.00 0.00 0.00 0.00 0.00 0.00 0.00 0.01 0.01 0.00 0.00 0.00 0.00 0.00 0.00 0.00 0.02 0.00 0.00 0.00 0.00 0.02 0.01 0.01 0.00 0.00 0.00 0.00 0.00 0.00 0.00 0.00 0.01 0.03 0.09 0.55 0.12 0.03 0.00 0.03 0.06 0.10 0.38 0.40 0.61 1.00 0.54 1.17 0.77 1.29 1.08 0.96 1.10 1.29 0.73 0.36 0.21 0.13 0.12 0.18 0.07 0.29 0.15 0.22 0.06 0.02 0.02 0.01 0.00 0.00 0.00 0.00 0.00 0.00 0.00 0.00 0.00 0.00 0.00 0.00 0.00 0.00
0.00 0.00 0.00 0.00 0.00 0.00 0.00 0.00 0.00 0.00 0.00 0.00 0.00 0.00 0.00 0.00 0.00 0.00 0.01 0.01 0.02 0.01 0.03 0.00 0.00 0.00 0.01 0.02 0.01 0.00 0.01 0.00 0.01 0.01 0.01 0.00 0.00 0.01 0.15 0.06 0.03 0.03 0.03 0.07 0.11 0.24 0.66 0.56 0.44 0.70 1.16 1.09 1.54 1.20 1.16 1.14 1.12 1.35 0.99 0.74 0.63 0.58 0.26 0.24 0.32 0.28 0.46 0.13 0.11 0.14 0.04 0.17 0.00 0.00 0.00 0.00 0.00 0.00 0.00 0.00 0.00 0.00 0.00 0.00 0.00 0.00
0.00 0.00 0.00 0.00 0.00 0.00 0.00 0.00 0.00 0.00 0.00 0.00 0.00 0.00 0.00 0.00 0.00 0.00 0.02 0.00 0.08 0.00 0.02 0.04 0.06 0.01 0.04 0.01 0.00 0.00 0.00 0.01 0.03 0.04 0.05 0.03 0.04 0.10 0.08 0.07 0.03 0.04 0.04 0.17 0.26 0.03 0.16 0.42 0.57 0.60 1.09 1.59 1.16 1.17 1.38 1.00 1.33 1.52 1.15 1.01 0.44 0.27 0.76 0.65 0.51 0.43 0.40 0.14 0.28 0.22 0.06 0.08 0.00 0.00 0.00 0.00 0.00 0.00 0.00 0.00 0.00 0.00 0.00 0.00 0.00 0.00
0.01 0.00 0.00 0.00 0.00 0.00 0.00 0.00 0.00 0.00 0.00 0.00 0.00 0.00 0.00 0.00 0.00 0.01 0.01 0.01 0.05 0.01 0.01 0.00 0.03 0.00 0.04 0.02 0.02 0.01 0.02 0.01 0.01 0.00 0.02 0.03 0.05 0.05 0.22 0.07 0.02 0.04 0.04 0.04 0.03 0.11 0.21 0.55 0.81 0.83 0.60 0.55 0.46 0.98 0.98 1.10 1.12 0.52 0.85 0.79 0.68 0.55 0.51 0.62 0.72 0.42 0.30 0.24 0.38 0.16 0.06 0.03 0.00 0.00 0.00 0.00 0.00 0.00 0.00 0.00 0.00 0.00 0.00 0.00 0.00 0.00
0.00 0.00 0.00 0.00 0.00 0.00 0.00 0.00 0.00 0.00 0.00 0.00 0.00 0.01 0.00 0.03 0.02 0.01 0.02 0.01 0.07 0.00 0.01 0.02 0.01 0.01 0.06 0.07 0.01 0.01 0.00 0.00 0.00 0.00 0.02 0.04 0.02 0.02 0.04 0.07 0.04 0.05 0.05 0.08 0.13 0.08 0.14 0.70 0.46 0.28 0.35 0.93 0.55 0.31 0.17 0.35 0.41 0.51 0.85 0.76 0.67 0.58 0.80 0.88 0.73 0.34 0.21 0.19 0.22 0.08 0.03 0.01 0.00 0.00 0.00 0.00 0.00 0.00 0.00 0.00 0.00 0.00 0.00 0.00 0.00 0.00
0.00 0.00 0.00 0.00 0.00 0.00 0.00 0.00 0.00 0.00 0.00 0.00 0.00 0.01 0.17 0.12 0.01 0.06 0.02 0.02 0.00 0.01 0.03 0.00 0.00 0.02 0.01 0.05 0.03 0.01 0.00 0.00 0.00 0.01 0.02 0.01 0.01 0.00 0.08 0.05 0.07 0.05 0.04 0.06 0.25 0.20 0.22 0.28 0.34 0.09 0.27 0.37 0.37 0.27 0.10 0.21 0.51 0.49 0.82 1.12 0.80 0.61 0.45 0.54 0.72 0.68 0.28 0.15 0.08 0.07 0.03 0.01 0.01 0.01 0.00 0.00 0.00 0.00 0.00 0.00 0.00 0.00 0.00 0.00 0.00 0.00
0.00 0.00 0.00 0.00 0.00 0.00 0.00 0.00 0.01 0.01 0.00 0.00 0.01 0.09 0.05 0.09 0.04 0.01 0.04 0.01 0.04 0.01 0.01 0.01 0.02 0.03 0.08 0.02 0.01 0.04 0.01 0.00 0.01 0.02 0.01 0.01 0.02 0.02 0.00 0.02 0.07 0.06 0.06 0.06 0.07 0.12 0.14 0.27 0.23 0.15 0.22 0.10 0.32 0.42 0.41 0.35 0.67 0.88 0.95 1.04 0.54 0.44 0.37 0.71 0.75 0.39 0.25 0.17 0.10 0.04 0.01 0.02 0.01 0.01 0.00 0.00 0.00 0.00 0.01 0.00 0.00 0.00 0.00 0.00 0.00 0.00
0.00 0.01 0.00 0.00 0.01 0.00 0.00 0.00 0.00 0.03 0.00 0.00 0.00 0.01 0.07 0.06 0.04 0.01 0.03 0.04 0.00 0.07 0.02 0.00 0.00 0.02 0.02 0.46 0.00 0.00 0.01 0.01 0.01 0.01 0.00 0.00 0.00 0.00 0.02 0.03 0.07 0.31 0.18 0.03 0.06 0.03 0.06 0.15 0.13 0.42 0.26 0.20 0.34 0.41 0.25 0.44 0.49 1.51 0.92 0.97 0.65 0.61 0.38 0.52 0.64 0.42 0.28 0.14 0.11 0.02 0.01 0.04 0.02 0.00 0.00 0.00 0.01 0.03 0.01 0.01 0.00 0.00 0.00 0.00 0.00 0.00
0.00 0.01 0.01 0.00 0.00 0.00 0.00 0.00 0.00 0.00 0.02 0.00 0.01 0.01 0.03 0.04 0.01 0.04 0.20 0.02 0.00 0.03 0.01 0.04 0.00 0.06 0.18 0.04 0.01 0.02 0.00 0.00 0.00 0.01 0.01 0.01 0.01 0.01 0.02 0.07 0.04 0.18 0.29 0.10 0.05 0.13 0.12 0.13 0.41 0.26 0.47 0.59 0.53 0.51 0.49 0.45 0.44 1.34 1.29 1.26 1.28 0.78 0.81 0.50 0.18 0.18 0.53 0.42 0.31 0.15 0.09 0.04 0.03 0.02 0.01 0.01 0.00 0.00 0.00 0.00 0.00 0.00 0.00 0.00 0.00 0.00
0.00 0.04 0.00 0.00 0.00 0.00 0.00 0.00 0.00 0.00 0.17 0.07 0.00 0.05 0.01 0.01 0.00 0.01 0.00 0.00 0.00 0.00 0.01 0.01 0.01 0.01 0.01 0.01 0.01 0.01 0.04 0.02 0.00 0.00 0.00 0.01 0.02 0.03 0.02 0.03 0.03 0.03 0.15 0.26 0.35 0.33 0.19 0.43 0.63 0.73 0.63 0.33 0.18 0.30 0.44 0.50 0.84 2.15 1.35 0.57 0.89 0.85 1.31 0.64 0.24 0.41 0.29 0.72 0.14 0.10 0.05 0.04 0.03 0.02 0.03 0.03 0.00 0.01 0.02 0.00 0.00 0.00 0.00 0.00 0.00 0.00
0.07 0.09 0.01 0.01 0.00 0.00 0.00 0.00 0.00 0.00 0.00 0.00 0.02 0.03 0.00 0.00 0.03 0.01 0.07 0.07 0.00 0.00 0.02 0.01 0.01 0.10 0.04 0.16 0.00 0.07 0.04 0.01 0.03 0.01 0.01 0.04 0.07 0.08 0.05 0.03 0.04 0.05 0.11 0.15 0.31 0.71 0.74 0.64 0.68 0.38 0.47 0.32 0.26 0.32 0.55 0.42 0.49 0.55 0.44 0.54 0.97 1.23 0.88 1.04 1.28 0.87 0.73 0.31 0.28 0.26 0.08 0.15 0.09 0.03 0.03 0.00 0.02 0.04 0.00 0.02 0.02 0.00 0.00 0.00 0.00 0.00
0.00 0.07 0.02 0.00 0.00 0.00 0.00 0.00 0.00 0.00 0.00 0.00 0.06 0.01 0.01 0.07 0.03 0.01 0.00 0.01 0.03 0.02 0.03 0.01 0.08 0.05 0.02 0.14 0.03 0.06 0.02 0.07 0.02 0.11 0.11 0.08 0.06 0.06 0.09 0.04 0.10 0.05 0.07 0.28 0.43 0.54 0.45 0.18 0.48 0.47 0.33 0.46 0.31 0.64 0.53 0.24 0.13 0.25 0.26 0.39 0.24 0.20 0.45 1.33 1.55 0.75 0.58 0.30 0.28 0.21 0.45 0.29 0.13 0.05 0.05 0.04 0.04 0.04 0.05 0.04 0.01 0.00 0.00 0.00 0.00 0.00
0.00 0.01 0.03 0.00 0.00 0.01 0.00 0.00 0.01 0.01 0.00 0.00 0.00 0.00 0.00 0.00 0.04 0.04 0.01 0.03 0.01 0.11 0.01 0.02 0.02 0.08 0.06 0.20 0.05 0.06 0.06 0.05 0.06 0.01 0.05 0.02 0.04 0.04 0.05 0.07 0.14 0.17 0.15 0.19 0.13 0.20 0.34 0.20 0.14 0.20 0.25 0.53 0.40 0.48 0.48 0.31 0.63 0.46 0.08 0.09 0.42 0.15 0.13 1.03 0.65 0.48 0.28 0.46 0.49 0.50 0.16 0.21 0.16 0.10 0.07 0.02 0.04 0.06 0.01 0.00 0.00 0.00 0.00 0.00 0.00 0.00
0.04 0.00 0.03 0.07 0.00 0.00 0.03 0.00 0.01 0.00 0.02 0.00 0.00 0.00 0.00 0.01 0.04 0.00 0.06 0.01 0.03 0.05 0.08 0.08 0.05 0.16 0.06 0.01 0.05 0.07 0.04 0.07 0.07 0.05 0.08 0.08 0.16 0.08 0.07 0.14 0.08 0.13 0.06 0.06 0.11 0.18 0.39 0.24 0.12 0.11 0.17 0.11 0.21 0.22 0.21 0.47 0.30 0.08 0.05 0.13 0.13 0.09 0.08 0.24 0.81 0.20 0.18 0.30 0.70 0.25 0.22 0.11 0.08 0.07 0.03 0.04 0.04 0.01 0.03 0.03 0.00 0.00 0.00 0.00 0.00 0.00
0.00 0.00 0.00 0.02 0.01 0.01 0.01 0.00 0.00 0.00 0.00 0.00 0.00 0.03 0.01 0.05 0.10 0.05 0.04 0.00 0.07 0.01 0.03 0.04 0.10 0.12 0.30 0.00 0.01 0.11 0.08 0.10 0.09 0.06 0.04 0.16 0.04 0.08 0.14 0.15 0.06 0.03 0.03 0.02 0.10 0.27 0.57 0.84 1.09 1.17 0.41 0.75 1.41 1.54 1.06 0.36 0.10 0.11 0.08 0.10 0.11 0.05 0.08 0.06 0.10 0.08 0.34 0.61 0.55 0.13 0.08 0.05 0.03 0.05 0.03 0.01 0.06 0.04 0.08 0.02 0.00 0.01 0.00 0.00 0.00 0.01
0.01 0.01 0.03 0.00 0.05 0.16 0.01 0.02 0.00 0.00 0.00 0.00 0.00 0.00 0.01 0.02 0.01 0.06 0.04 0.13 0.04 0.06 0.03 0.11 0.06 0.15 0.02 0.01 0.04 0.00 0.15 0.13 0.22 0.11 0.11 0.16 0.18 0.21 0.37 0.46 0.39 0.31 0.19 0.18 0.14 0.18 0.74 1.07 0.72 0.81 0.24 0.26 0.15 0.26 0.09 0.09 0.12 0.15 0.07 0.13 0.23 0.12 0.09 0.11 0.04 0.07 0.12 0.12 0.07 0.04 0.17 0.21 0.10 0.03 0.07 0.01 0.02 0.07 0.11 0.04 0.15 0.04 0.01 0.01 0.01 0.01
0.00 0.00 0.00 0.03 0.04 0.03 0.00 0.00 0.00 0.00 0.00 0.00 0.00 0.00 0.00 0.02 0.01 0.02 0.02 0.08 0.03 0.05 0.04 0.05 0.02 0.13 0.04 0.10 0.05 0.07 0.11 0.06 0.07 0.15 0.20 0.14 0.20 0.26 0.27 0.32 0.45 0.26 0.41 0.45 0.09 0.04 0.35 0.41 0.17 0.19 0.12 0.21 0.11 0.07 0.04 0.03 0.06 0.08 0.09 0.19 0.41 0.67 0.38 0.18 0.25 0.54 0.39 0.13 0.14 0.42 0.87 0.55 0.40 0.30 0.07 0.05 0.05 0.08 0.01 0.01 0.04 0.06 0.15 0.04 0.09 0.01
0.08 0.02 0.02 0.06 0.04 0.07 0.10 0.02 0.02 0.00 0.00 0.00 0.00 0.00 0.00 0.00 0.00 0.02 0.01 0.01 0.02 0.00 0.04 0.05 0.04 0.09 0.07 0.00 0.03 0.06 0.05 0.17 0.47 0.25 0.41 0.26 0.14 0.46 0.65 0.94 0.96 0.55 0.54 0.16 0.03 0.03 0.02 0.04 0.12 0.15 0.19 0.20 0.20 0.23 0.36 0.38 0.30 0.39 0.59 0.21 0.29 0.18 0.05 0.08 0.23 0.22 0.21 0.62 0.65 0.52 0.49 0.64 0.77 0.56 0.32 0.23 0.29 0.10 0.03 0.02 0.10 0.28 0.29 0.10 0.13 0.14
0.05 0.04 0.02 0.03 0.15 0.13 0.14 0.12 0.14 0.08 0.03 0.01 0.00 0.00 0.00 0.00 0.02 0.02 0.00 0.01 0.02 0.01 0.02 0.02 0.06 0.04 0.05 0.03 0.08 0.16 0.26 0.35 0.40 0.35 0.39 0.34 0.18 0.13 0.20 0.28 0.22 0.52 0.35 0.27 0.16 0.05 0.02 0.05 0.07 0.05 0.05 0.06 0.28 0.23 0.04 0.06 0.11 0.08 0.09 0.02 0.02 0.10 0.46 0.65 0.50 0.78 0.60 0.40 0.19 0.23 0.66 0.78 0.82 0.53 0.41 0.60 0.46 0.41 0.59 0.42 0.32 0.27 0.16 0.07 0.17 0.13
0.24 0.04 0.05 0.04 0.05 0.19 0.06 0.06 0.06 0.00 0.02 0.04 0.01 0.00 0.02 0.00 0.00 0.01 0.03 0.00 0.02 0.00 0.03 0.07 0.03 0.06 0.06 0.06 0.08 0.02 0.23 0.17 0.31 0.25 0.38 0.14 0.04 0.07 0.16 0.44 0.23 0.49 0.38 0.22 0.19 0.27 0.15 0.07 0.19 0.27 0.20 0.24 0.10 0.15 0.15 0.07 0.07 0.06 0.07 0.06 0.07 0.12 0.25 0.63 0.43 0.58 0.79 0.46 0.66 1.17 0.60 0.59 0.78 0.82 1.27 1.24 1.15 0.90 0.65 0.71 0.77 0.72 0.54 0.31 0.25 0.36
0.13 0.07 0.03 0.04 0.02 0.04 0.03 0.05 0.07 0.01 0.01 0.02 0.04 0.04 0.01 0.00 0.01 0.08 0.00 0.01 0.05 0.05 0.04 0.26 0.06 0.02 0.03 0.03 0.03 0.06 0.06 0.07 0.27 0.17 0.09 0.12 0.22 0.25 0.40 0.45 0.26 0.10 0.17 0.05 0.03 0.03 0.08 0.18 0.14 0.12 0.16 0.39 0.51 0.51 0.44 0.17 0.67 0.23 0.25 0.20 0.10 0.17 0.15 0.12 0.18 0.43 0.47 0.48 0.97 0.75 0.63 0.74 0.96 0.89 0.82 0.90 0.95 0.97 0.90 1.02 0.86 0.78 0.70 0.75 0.51 0.56
0.12 0.16 0.10 0.05 0.04 0.04 0.04 0.03 0.03 0.05 0.01 0.01 0.02 0.06 0.07 0.03 0.01 0.02 0.00 0.00 0.08 0.02 0.01 0.10 0.09 0.01 0.03 0.03 0.01 0.03 0.02 0.09 0.17 0.22 0.17 0.21 0.11 0.04 0.05 0.08 0.05 0.06 0.02 0.01 0.01 0.00 0.00 0.01 0.01 0.02 0.06 0.23 0.29 0.08 0.07 0.04 0.07 0.21 0.04 0.18 0.13 0.08 0.07 0.18 0.23 0.11 0.28 0.27 0.41 0.69 0.50 0.86 0.79 0.51 0.41 0.38 0.57 0.99 1.08 0.80 0.61 0.55 0.56 0.46 0.38 0.41
0.04 0.13 0.16 0.10 0.12 0.07 0.04 0.02 0.02 0.03 0.03 0.02 0.04 0.02 0.02 0.03 0.06 0.06 0.02 0.02 0.03 0.05 0.04 0.09 0.02 0.01 0.04 0.07 0.01 0.01 0.02 0.12 0.22 0.18 0.19 0.09 0.05 0.22 0.05 0.06 0.04 0.15 0.06 0.04 0.08 0.02 0.00 0.00 0.00 0.00 0.00 0.00 0.01 0.08 0.03 0.02 0.02 0.03 0.02 0.11 0.11 0.08 0.01 0.25 0.19 0.13 0.23 0.33 0.23 0.31 0.30 0.37 0.36 0.66 0.47 0.67 0.60 0.37 0.59 0.42 0.49 0.33 0.35 0.36 0.39 0.32
0.11 0.09 0.03 0.20 0.29 0.09 0.18 0.13 0.12 0.08 0.05 0.09 0.03 0.03 0.03 0.04 0.11 0.07 0.27 0.34 0.08 0.06 0.14 0.01 0.04 0.01 0.06 0.02 0.01 0.01 0.03 0.09 0.59 0.47 0.38 0.17 0.06 0.20 0.03 0.01 0.01 0.02 0.05 0.02 0.00 0.00 0.00 0.00 0.00 0.00 0.00 0.00 0.00 0.00 0.00 0.00 0.02 0.05 0.03 0.04 0.08 0.12 0.02 0.11 0.10 0.12 0.10 0.33 0.14 0.18 0.17 0.15 0.28 0.27 0.15 0.30 0.25 0.23 0.41 0.29 0.32 0.17 0.06 0.09 0.12 0.22
0.06 0.19 0.03 0.09 0.12 0.24 0.09 0.17 0.14 0.14 0.10 0.07 0.05 0.05 0.09 0.12 0.09 0.02 0.03 0.10 0.19 0.18 0.21 0.18 0.12 0.06 0.10 0.10 0.07 0.02 0.01 0.03 0.06 0.16 0.16 0.01 0.00 0.01 0.01 0.03 0.00 0.02 0.01 0.04 0.05 0.02 0.01 0.00 0.00 0.00 0.00 0.00 0.00 0.00 0.00 0.00 0.00 0.00 0.01 0.01 0.04 0.09 0.08 0.08 0.04 0.03 0.06 0.10 0.06 0.03 0.03 0.04 0.25 0.25 0.36 0.42 0.24 0.24 0.28 0.17 0.31 0.36 0.34 0.10 0.32 0.80
0.20 0.11 0.07 0.39 0.06 0.09 0.17 0.09 0.11 0.06 0.07 0.10 0.07 0.06 0.05 0.06 0.04 0.04 0.03 0.05 0.13 0.10 0.28 0.34 0.20 0.14 0.06 0.01 0.00 0.01 0.00 0.04 0.14 0.01 0.02 0.01 0.01 0.00 0.01 0.02 0.01 0.01 0.01 0.01 0.03 0.03 0.01 0.09 0.00 0.00 0.00 0.00 0.00 0.00 0.00 0.00 0.00 0.00 0.00 0.00 0.00 0.00 0.00 0.00 0.00 0.00 0.01 0.01 0.00 0.00 0.03 0.04 0.04 0.02 0.04 0.14 0.13 0.17 0.35 0.36 0.16 0.24 0.39 0.24 0.13 0.22
0.13 0.16 0.09 0.09 0.12 0.28 0.12 0.40 0.09 0.05 0.14 0.06 0.13 0.01 0.01 0.02 0.01 0.03 0.03 0.03 0.04 0.05 0.13 0.07 0.57 0.20 0.14 0.13 0.05 0.01 0.03 0.02 0.16 0.17 0.00 0.06 0.21 0.17 0.08 0.01 0.02 0.04 0.11 0.18 0.19 0.22 0.19 0.14 0.09 0.01 0.08 0.05 0.01 0.00 0.00 0.00 0.00 0.00 0.00 0.00 0.00 0.00 0.00 0.00 0.00 0.00 0.00 0.00 0.00 0.00 0.00 0.00 0.00 0.01 0.08 0.09 0.02 0.04 0.06 0.04 0.07 0.12 0.25 0.22 0.14 0.07
0.08 0.17 0.11 0.13 0.23 0.10 0.15 0.23 0.16 0.08 0.10 0.03 0.07 0.02 0.00 0.02 0.01 0.00 0.03 0.01 0.01 0.03 0.08 0.13 0.16 0.34 0.17 0.32 0.22 0.24 0.31 0.46 0.08 0.21 0.06 0.04 0.02 0.08 0.39 0.31 0.22 0.24 0.28 0.27 0.17 0.13 0.19 0.74 0.86 0.10 0.42 0.08 0.25 0.30 0.03 0.01 0.00 0.00 0.00 0.00 0.00 0.00 0.00 0.00 0.00 0.00 0.00 0.00 0.00 0.00 0.00 0.00 0.00 0.00 0.00 0.00 0.00 0.01 0.02 0.04 0.07 0.02 0.02 0.05 0.09 0.07
0.04 0.08 0.10 0.07 0.07 0.08 0.15 0.21 0.15 0.30 0.06 0.17 0.43 0.37 0.10 0.03 0.01 0.01 0.00 0.00 0.00 0.00 0.01 0.01 0.04 0.04 0.27 0.33 0.23 0.16 0.13 0.15 0.23 0.37 0.19 0.17 0.14 0.33 0.47 0.33 0.53 0.39 0.51 0.53 0.56 0.51 0.79 0.53 0.48 0.69 0.48 0.25 0.07 0.13 0.17 0.20 0.14 0.04 0.13 0.12 0.06 0.01 0.00 0.00 0.00 0.00 0.00 0.00 0.00 0.02 0.02 0.00 0.00 0.00 0.01 0.00 0.00 0.00 0.01 0.01 0.02 0.03 0.04 0.03 0.03 0.05
0.12 0.13 0.04 0.13 0.12 0.13 0.09 0.14 0.12 0.17 0.04 0.03 0.07 0.08 0.33 0.08 0.05 0.26 0.04 0.04 0.04 0.02 0.01 0.01 0.01 0.01 0.08 0.05 0.14 0.27 0.19 0.15 0.14 0.08 0.19 0.39 0.40 0.46 0.33 0.64 0.42 0.22 0.42 0.32 0.27 0.24 0.27 0.66 0.87 1.03 0.92 0.70 0.29 0.32 0.25 0.24 0.18 0.09 0.13 0.10 0.12 0.05 0.03 0.06 0.01 0.02 0.02 0.04 0.01 0.01 0.01 0.00 0.00 0.00 0.00 0.00 0.00 0.00 0.00 0.00 0.01 0.01 0.02 0.02 0.02 0.02
0.02 0.01 0.37 0.02 0.19 0.01 0.11 0.19 0.23 0.10 0.23 0.16 0.14 0.26 0.01 0.09 0.02 0.02 0.04 0.06 0.20 0.09 0.03 0.01 0.00 0.00 0.00 0.02 0.01 0.01 0.04 0.10 0.10 0.05 0.03 0.01 0.00 0.04 0.08 0.29 0.32 0.28 0.25 0.27 0.32 0.63 0.50 0.53 0.44 0.38 0.46 0.72 0.54 0.35 0.35 0.34 0.41 0.30 0.32 0.44 0.11 0.16 0.13 0.18 0.12 0.08 0.05 0.10 0.04 0.02 0.00 0.00 0.00 0.00 0.00 0.00 0.00 0.00 0.00 0.00 0.00 0.00 0.00 0.01 0.02 0.02
0.06 0.01 0.03 0.00 0.10 0.01 0.04 0.07 0.10 0.15 0.21 0.11 0.19 0.11 0.13 0.12 0.12 0.21 0.01 0.12 0.26 0.31 0.05 0.00 0.02 0.01 0.07 0.00 0.00 0.00 0.02 0.07 0.05 0.03 0.01 0.00 0.00 0.00 0.00 0.00 0.00 0.07 0.05 0.12 0.09 0.05 0.09 0.07 0.10 0.10 0.16 0.16 0.20 0.18 0.16 0.14 0.10 0.08 0.08 0.05 0.03 0.01 0.02 0.01 0.02 0.03 0.02 0.02 0.01 0.01 0.01 0.00 0.00 0.00 0.00 0.00 0.00 0.00 0.00 0.00 0.00 0.00 0.00 0.00 0.00 0.01
0.05 0.01 0.13 0.08 0.02 0.06 0.10 0.13 0.24 0.25 0.12 0.08 0.03 0.04 0.03 0.05 0.17 0.18 0.13 0.10 0.07 0.03 0.07 0.08 0.17 0.01 0.01 0.17 0.00 0.00 0.03 0.10 0.15 0.07 0.01 0.01 0.00 0.00 0.00 0.00 0.00 0.00 0.00 0.01 0.00 0.00 0.01 0.00 0.01 0.01 0.01 0.02 0.00 0.01 0.02 0.07 0.02 0.05 0.06 0.09 0.01 0.03 0.06 0.04 0.04 0.01 0.01 0.00 0.00 0.00 0.00 0.01 0.00 0.00 0.00 0.00 0.00 0.01 0.00 0.00 0.00 0.00 0.00 0.00 0.00 0.02
0.07 0.29 0.03 0.15 0.09 0.14 0.04 0.11 0.07 0.04 0.03 0.01 0.02 0.01 0.01 0.02 0.02 0.07 0.12 0.20 0.00 0.00 0.00 0.00 0.01 0.01 0.00 0.13 0.04 0.01 0.03 0.02 0.00 0.00 0.00 0.00 0.00 0.00 0.00 0.00 0.02 0.01 0.01 0.00 0.00 0.00 0.00 0.00 0.00 0.00 0.00 0.00 0.00 0.00 0.00 0.00 0.00 0.01 0.01 0.03 0.01 0.07 0.02 0.01 0.01 0.01 0.01 0.01 0.00 0.00 0.01 0.00 0.00 0.00 0.00 0.00 0.00 0.00 0.00 0.01 0.00 0.00 0.00 0.01 0.02 0.03
0.04 0.02 0.03 0.03 0.08 0.09 0.13 0.13 0.21 0.35 0.23 0.01 0.01 0.00 0.10 0.02 0.09 0.16 0.06 0.01 0.02 0.00 0.00 0.00 0.00 0.00 0.04 0.00 0.01 0.00 0.03 0.00 0.00 0.00 0.00 0.00 0.00 0.00 0.00 0.00 0.00 0.00 0.00 0.00 0.00 0.00 0.00 0.00 0.00 0.00 0.00 0.00 0.00 0.00 0.00 0.00 0.00 0.00 0.00 0.00 0.00 0.01 0.00 0.00 0.00 0.00 0.00 0.00 0.00 0.00 0.00 0.01 0.01 0.01 0.00 0.00 0.00 0.00 0.00 0.00 0.01 0.01 0.04 0.01 0.03 0.01
0.07 0.05 0.10 0.06 0.03 0.01 0.02 0.07 0.21 0.18 0.72 0.00 0.03 0.04 0.15 0.02 0.14 0.03 0.00 0.01 0.00 0.00 0.00 0.00 0.00 0.00 0.01 0.17 0.02 0.01 0.03 0.00 0.00 0.00 0.00 0.00 0.00 0.00 0.00 0.00 0.00 0.00 0.00 0.00 0.00 0.00 0.00 0.00 0.00 0.00 0.00 0.00 0.00 0.00 0.00 0.00 0.00 0.00 0.00 0.00 0.00 0.00 0.00 0.00 0.00 0.00 0.00 0.00 0.00 0.00 0.00 0.00 0.00 0.00 0.00 0.00 0.00 0.00 0.00 0.01 0.00 0.01 0.01 0.02 0.04 0.03
0.02 0.07 0.11 0.08 0.05 0.08 0.10 0.11 0.21 0.17 0.01 0.02 0.01 0.02 0.10 0.02 0.02 0.02 0.00 0.01 0.02 0.01 0.00 0.00 0.00 0.00 0.01 0.00 0.00 0.00 0.00 0.00 0.00 0.00 0.00 0.00 0.00 0.00 0.00 0.00 0.00 0.00 0.00 0.00 0.00 0.00 0.00 0.00 0.00 0.00 0.00 0.00 0.00 0.00 0.00 0.00 0.00 0.00 0.00 0.00 0.00 0.00 0.00 0.00 0.00 0.00 0.00 0.00 0.00 0.00 0.01 0.01 0.00 0.00 0.00 0.00 0.00 0.00 0.00 0.01 0.02 0.01 0.01 0.01 0.01 0.03
0.01 0.03 0.00 0.05 0.10 0.08 0.12 0.10 0.04 0.01 0.00 0.00 0.01 0.02 0.03 0.03 0.02 0.03 0.06 0.03 0.01 0.00 0.00 0.01 0.03 0.03 0.00 0.01 0.00 0.00 0.00 0.00 0.00 0.00 0.00 0.00 0.00 0.00 0.00 0.00 0.00 0.00 0.00 0.00 0.00 0.00 0.00 0.00 0.00 0.00 0.00 0.00 0.00 0.00 0.00 0.00 0.00 0.00 0.00 0.00 0.00 0.00 0.00 0.00 0.00 0.00 0.00 0.00 0.00 0.00 0.00 0.00 0.06 0.02 0.10 0.01 0.01 0.01 0.02 0.09 0.21 0.01 0.01 0.01 0.01 0.02
0.00 0.00 0.00 0.01 0.01 0.03 0.06 0.07 0.07 0.06 0.04 0.03 0.02 0.03 0.02 0.01 0.02 0.02 0.02 0.10 0.09 0.08 0.01 0.01 0.02 0.01 0.01 0.01 0.00 0.00 0.00 0.00 0.00 0.00 0.00 0.00 0.00 0.00 0.00 0.00 0.00 0.00 0.00 0.00 0.00 0.00 0.00 0.00 0.00 0.00 0.00 0.00 0.00 0.00 0.00 0.00 0.00 0.00 0.00 0.00 0.00 0.00 0.00 0.00 0.00 0.00 0.00 0.00 0.00 0.00 0.00 0.00 0.00 0.00 0.00 0.02 0.21 0.02 0.02 0.02 0.04 0.18 0.36 0.14 0.06 0.07
0.00 0.00 0.02 0.01 0.03 0.01 0.02 0.01 0.02 0.04 0.04 0.03 0.03 0.03 0.03 0.02 0.03 0.02 0.03 0.04 0.05 0.04 0.04 0.02 0.03 0.02 0.03 0.02 0.02 0.01 0.00 0.00 0.00 0.00 0.00 0.00 0.00 0.00 0.00 0.00 0.00 0.00 0.00 0.00 0.00 0.00 0.00 0.00 0.00 0.00 0.00 0.00 0.00 0.00 0.00 0.00 0.00 0.00 0.00 0.00 0.00 0.00 0.00 0.00 0.00 0.00 0.00 0.00 0.00 0.00 0.00 0.00 0.01 0.01 0.02 0.06 0.01 0.09 0.02 0.06 0.11 0.08 0.08 0.45 0.31 0.66
0.02 0.00 0.03 0.03 0.05 0.03 0.03 0.00 0.00 0.00 0.00 0.00 0.00 0.00 0.01 0.01 0.00 0.00 0.00 0.00 0.01 0.03 0.03 0.04 0.02 0.02 0.00 0.00 0.00 0.01 0.00 0.00 0.00 0.00 0.00 0.00 0.00 0.00 0.00 0.00 0.00 0.00 0.00 0.00 0.00 0.00 0.00 0.00 0.00 0.00 0.00 0.00 0.00 0.00 0.00 0.00 0.00 0.00 0.00 0.00 0.00 0.00 0.00 0.00 0.00 0.01 0.01 0.01 0.01 0.00 0.00 0.01 0.01 0.01 0.01 0.02 0.01 0.01 0.03 0.14 0.03 0.09 0.02 0.03 0.06 0.12
0.00 0.00 0.01 0.04 0.03 0.01 0.00 0.00 0.00 0.00 0.00 0.00 0.00 0.00 0.00 0.00 0.00 0.00 0.01 0.02 0.01 0.01 0.01 0.01 0.01 0.01 0.01 0.00 0.00 0.00 0.00 0.00 0.00 0.00 0.00 0.00 0.00 0.00 0.00 0.00 0.00 0.00 0.00 0.00 0.00 0.00 0.00 0.00 0.00 0.00 0.00 0.00 0.00 0.01 0.01 0.00 0.00 0.01 0.00 0.00 0.00 0.00 0.00 0.00 0.00 0.00 0.00 0.01 0.01 0.01 0.02 0.01 0.01 0.02 0.02 0.04 0.02 0.01 0.05 0.13 0.04 0.05 0.03 0.12 0.07 0.14
0.00 0.03 0.02 0.01 0.07 0.05 0.10 0.03 0.02 0.04 0.02 0.03 0.00 0.01 0.02 0.02 0.03 0.07 0.03 0.02 0.03 0.03 0.02 0.02 0.03 0.04 0.03 0.03 0.04 0.04 0.06 0.03 0.01 0.03 0.04 0.01 0.01 0.01 0.00 0.00 0.01 0.01 0.01 0.01 0.01 0.01 0.01 0.02 0.01 0.03 0.04 0.03 0.06 0.01 0.02 0.00 0.00 0.02 0.00 0.00 0.00 0.00 0.00 0.00 0.01 0.01 0.01 0.01 0.01 0.01 0.01 0.03 0.02 0.08 0.21 0.05 0.03 0.02 0.02 0.01 0.02 0.05 0.03 0.22 0.08 0.05
0.01 0.01 0.03 0.05 0.05 0.03 0.03 0.02 0.04 0.09 0.08 0.03 0.04 0.02 0.01 0.01 0.03 0.03 0.03 0.04 0.05 0.04 0.11 0.07 0.07 0.04 0.04 0.08 0.06 0.04 0.03 0.02 0.03 0.03 0.05 0.06 0.02 0.05 0.02 0.03 0.02 0.02 0.02 0.01 0.02 0.03 0.03 0.02 0.01 0.01 0.02 0.02 0.01 0.01 0.02 0.02 0.00 0.00 0.00 0.01 0.00 0.00 0.00 0.00 0.00 0.01 0.01 0.01 0.01 0.01 0.01 0.02 0.02 0.03 0.03 0.04 0.04 0.04 0.03 0.05 0.02 0.01 0.01 0.04 0.03 0.05